TimePST,TemperatureF,Dew PointF,Humidity,Sea Level PressureIn,VisibilityMPH,Wind Direction,Wind SpeedMPH,Gust SpeedMPH,PrecipitationIn,Events,Conditions,WindDirDegrees,DateUTC
12:15 AM,33.8,33.8,100,30.59,9.0,Calm,Calm,-,0.00,,Overcast,0,2013-01-15 08:15:00
12:35 AM,33.8,33.8,100,30.60,10.0,Calm,Calm,-,0.00,,Overcast,0,2013-01-15 08:35:00
12:55 AM,33.8,33.8,100,30.60,9.0,NE,3.5,-,0.00,,Overcast,50,2013-01-15 08:55:00
1:15 AM,33.8,33.8,100,30.61,8.0,Calm,Calm,-,0.00,,Overcast,0,2013-01-15 09:15:00
1:35 AM,33.8,33.8,100,30.62,8.0,Calm,Calm,-,0.00,,Overcast,0,2013-01-15 09:35:00
1:55 AM,33.8,33.8,100,30.62,8.0,Calm,Calm,-,0.00,,Overcast,0,2013-01-15 09:55:00
2:15 AM,33.8,33.8,100,30.62,8.0,Calm,Calm,-,0.00,,Overcast,0,2013-01-15 10:15:00
2:55 AM,33.8,33.8,100,30.64,8.0,Calm,Calm,-,0.00,,Overcast,0,2013-01-15 10:55:00
3:15 AM,33.8,33.8,100,30.64,8.0,Calm,Calm,-,0.00,,Overcast,0,2013-01-15 11:15:00
3:35 AM,33.8,33.8,100,30.64,8.0,Calm,Calm,-,0.00,,Overcast,0,2013-01-15 11:35:00
3:55 AM,33.8,33.8,100,30.64,8.0,Calm,Calm,-,0.00,,Overcast,0,2013-01-15 11:55:00
4:15 AM,33.8,33.8,100,30.64,8.0,NNE,3.5,-,0.00,,Overcast,30,2013-01-15 12:15:00
4:35 AM,33.8,33.8,100,30.64,8.0,NNE,3.5,-,0.00,,Overcast,30,2013-01-15 12:35:00
4:55 AM,33.8,33.8,100,30.64,8.0,Calm,Calm,-,0.00,,Overcast,0,2013-01-15 12:55:00
5:15 AM,33.8,33.8,100,30.64,9.0,Calm,Calm,-,0.00,,Overcast,0,2013-01-15 13:15:00
5:35 AM,33.8,33.8,100,30.64,8.0,Calm,Calm,-,0.00,,Overcast,0,2013-01-15 13:35:00
5:55 AM,33.8,33.8,100,30.64,8.0,Calm,Calm,-,0.00,,Overcast,0,2013-01-15 13:55:00
6:15 AM,33.8,33.8,100,30.65,8.0,Calm,Calm,-,0.00,,Overcast,0,2013-01-15 14:15:00
6:35 AM,33.8,33.8,100,30.65,8.0,Calm,Calm,-,0.00,,Overcast,0,2013-01-15 14:35:00
6:55 AM,33.8,33.8,100,30.66,8.0,Calm,Calm,-,0.00,,Overcast,0,2013-01-15 14:55:00
7:15 AM,33.8,33.8,100,30.66,9.0,Calm,Calm,-,0.00,,Overcast,0,2013-01-15 15:15:00
7:35 AM,33.8,33.8,100,30.67,10.0,Calm,Calm,-,0.00,,Overcast,0,2013-01-15 15:35:00
8:15 AM,33.8,33.8,100,30.69,7.0,Calm,Calm,-,0.00,,Overcast,0,2013-01-15 16:15:00
8:35 AM,33.8,33.8,100,30.70,8.0,Calm,Calm,-,0.00,,Overcast,0,2013-01-15 16:35:00
8:55 AM,33.8,33.8,100,30.70,7.0,Calm,Calm,-,0.00,,Overcast,0,2013-01-15 16:55:00
9:15 AM,33.8,33.8,100,30.71,7.0,Calm,Calm,-,0.00,,Overcast,0,2013-01-15 17:15:00
9:35 AM,35.6,33.8,93,30.70,7.0,NE,4.6,-,0.00,,Overcast,40,2013-01-15 17:35:00
9:55 AM,35.6,33.8,93,30.71,7.0,ENE,3.5,-,0.00,,Overcast,60,2013-01-15 17:55:00
10:15 AM,35.6,33.8,93,30.71,7.0,NE,3.5,-,0.00,,Overcast,50,2013-01-15 18:15:00
10:35 AM,35.6,35.6,100,30.72,7.0,NNE,4.6,-,0.00,,Overcast,30,2013-01-15 18:35:00
10:55 AM,37.4,35.6,93,30.72,7.0,NE,3.5,-,0.00,,Overcast,40,2013-01-15 18:55:00
11:15 AM,37.4,35.6,93,30.72,7.0,Calm,Calm,-,0.00,,Overcast,0,2013-01-15 19:15:00
11:35 AM,37.4,35.6,93,30.72,8.0,ENE,3.5,-,0.00,,Overcast,60,2013-01-15 19:35:00
11:55 AM,37.4,35.6,93,30.71,8.0,Calm,Calm,-,0.00,,Overcast,0,2013-01-15 19:55:00
12:15 PM,39.2,35.6,87,30.71,9.0,Calm,Calm,-,0.00,,Overcast,0,2013-01-15 20:15:00
12:35 PM,39.2,35.6,87,30.71,8.0,NNW,3.5,-,0.00,,Mostly Cloudy,340,2013-01-15 20:35:00
12:55 PM,39.2,35.6,87,30.70,8.0,Calm,Calm,-,0.00,,Mostly Cloudy,0,2013-01-15 20:55:00
1:35 PM,41.0,33.8,76,30.70,9.0,Calm,Calm,-,0.00,,Overcast,0,2013-01-15 21:35:00
1:55 PM,41.0,33.8,76,30.70,9.0,NW,3.5,-,0.00,,Mostly Cloudy,310,2013-01-15 21:55:00
2:35 PM,42.8,35.6,76,30.70,9.0,Calm,Calm,-,0.00,,Scattered Clouds,0,2013-01-15 22:35:00
2:55 PM,39.2,35.6,87,30.71,8.0,Calm,Calm,-,0.00,,Clear,0,2013-01-15 22:55:00
3:15 PM,39.2,35.6,87,30.71,7.0,NE,3.5,-,0.00,,Clear,50,2013-01-15 23:15:00
3:35 PM,39.2,35.6,87,30.71,7.0,NE,4.6,-,0.00,,Clear,50,2013-01-15 23:35:00
3:55 PM,39.2,35.6,87,30.70,8.0,NNE,4.6,-,0.00,,Clear,20,2013-01-15 23:55:00
4:35 PM,37.4,35.6,93,30.71,7.0,NW,3.5,-,0.00,,Clear,320,2013-01-16 00:35:00
4:55 PM,33.8,33.8,100,30.70,7.0,NW,3.5,-,0.00,,Clear,310,2013-01-16 00:55:00
5:15 PM,33.8,33.8,100,30.70,8.0,NW,4.6,-,0.00,,Clear,320,2013-01-16 01:15:00
5:35 PM,32.0,32.0,100,30.71,9.0,NW,3.5,-,0.00,,Clear,310,2013-01-16 01:35:00
5:55 PM,32.0,32.0,100,30.70,8.0,WNW,3.5,-,0.00,,Clear,300,2013-01-16 01:55:00
6:15 PM,32.0,32.0,100,30.70,8.0,Calm,Calm,-,0.00,,Clear,0,2013-01-16 02:15:00
6:35 PM,32.0,32.0,100,30.70,8.0,Calm,Calm,-,0.00,,Clear,0,2013-01-16 02:35:00
6:55 PM,32.0,32.0,100,30.70,7.0,Calm,Calm,-,0.00,,Clear,0,2013-01-16 02:55:00
7:15 PM,32.0,32.0,100,30.70,7.0,NNW,3.5,-,0.00,,Clear,340,2013-01-16 03:15:00
7:35 PM,32.0,32.0,100,30.70,7.0,NNE,3.5,-,0.00,,Clear,20,2013-01-16 03:35:00
7:55 PM,32.0,32.0,100,30.71,9.0,NNE,4.6,-,0.00,,Clear,30,2013-01-16 03:55:00
8:15 PM,33.8,32.0,93,30.71,10.0,NE,6.9,-,0.00,,Clear,40,2013-01-16 04:15:00
8:35 PM,33.8,32.0,93,30.70,10.0,NE,6.9,-,0.00,,Clear,40,2013-01-16 04:35:00
8:55 PM,32.0,32.0,100,30.70,10.0,NE,5.8,-,0.00,,Clear,50,2013-01-16 04:55:00
9:15 PM,32.0,32.0,100,30.70,10.0,NE,3.5,-,0.00,,Clear,50,2013-01-16 05:15:00
9:35 PM,32.0,32.0,100,30.70,10.0,Calm,Calm,-,0.00,,Clear,0,2013-01-16 05:35:00
10:15 PM,32.0,32.0,100,30.70,10.0,NE,4.6,-,0.00,,Clear,40,2013-01-16 06:15:00
10:35 PM,32.0,32.0,100,30.70,10.0,NE,3.5,-,0.00,,Clear,40,2013-01-16 06:35:00
10:55 PM,32.0,32.0,100,30.70,10.0,NE,3.5,-,0.00,,Clear,40,2013-01-16 06:55:00
11:15 PM,32.0,32.0,100,30.70,10.0,Calm,Calm,-,0.00,,Clear,0,2013-01-16 07:15:00
11:35 PM,32.0,32.0,100,30.70,10.0,Calm,Calm,-,0.00,,Clear,0,2013-01-16 07:35:00
11:55 PM,32.0,32.0,100,30.70,10.0,Calm,Calm,-,0.00,,Clear,0,2013-01-16 07:55:00